STARLINK-36512, 67504

Orbit data source: Space-Track

STARLINK-36512, 67504 is a payload satellite owned by SpaceX/Seattle (US) in LEO that was launched on Sun, 18 Jan 2026 UTC via an FALCON 9 launch vehicle from the Air Force Eastern Test Range (AFETR). Payload-class satellites include a variety of spacecraft equipped with specific instruments for various scientific and technological missions. These include communications satellites like Starlink; space stations such as the ISS; scientific satellites like the Hubble; Earth observation satellites from companies like Planet Labs, Umbra, and HawkEye 360; GPS; miniature CubeSats for education and research; and military/defense satellites.

Loading next visibility...
Identifier
67504, 2026-012M
Orbit
LEO
Country
Flag of USUS
Related business
Manufacturer
SpaceX/Seattle
Mission
Operational Commercial Communications
Bus & Motor
STARLINK V2MO, Unknown motor
Mass
575 kg wet, ~530 kg dry
Launch date (UTC)
2026-01-18 (5 months ago)
Launch vehicle
FALCON 9
Launch site
Air Force Eastern Test Range (AFETR)
Object type
Payload
Rocket body
Debris
Shape & HBR
Box + 2 Pan, 17.7 m
Radar Cross Section
36.964 m², Large (>1 m²)

Expand to show TLE details & history
Last TLE update: 15 hours ago

TLE from 15 hours ago
0 STARLINK-36512
1 67504U 26012M   26171.20785328  .00020106  00000-0  73775-3 0  9996
2 67504  42.9986  95.1748 0000972 279.3115  80.7626 15.27598868 23443
Epoch: 2026-06-20T04:59Z
TLE epoch observation values (Epoch: 2026-06-20T04:59:18.523Z)
Latitude
-0.00006°
Longitude
111.92177°
Altitude
482.661 km
Speed
7.626 km/s
True Right ascension
06h 20m 41s
True Declination
0° 00' 00"
Sunlit
Object was in daylight at epoch
Visualization orbit readout
Latitude
Unknown
Longitude
Unknown
Altitude
Unknown
Speed
Unknown
Apparent Right ascension
Unknown
Apparent Declination
Unknown
Sunlit
N/A
Visualization observer readout
Local Sidereal Time
07:19:42
Azimuth
Unknown
Elevation
Unknown
Doppler factor
Unknown
Orbital elements
Apogee altitude
485.605 km
Perigee altitude
484.271 km
Semi-major axis
6,863.075 km
Eccentricity
0.0001
Inclination
42.9986°
RAAN
95.1748°
Arg. of periapsis
279.3115°
True anomaly
80.77359°
Mean anomaly
80.7626°
Eccentric anomaly
80.7681°
Mean motion
3.81738 °/min
Orbital period
94.31 mins
BSTAR
0.00073775
Loading maneuver chart data...
Computing Atmospheric mass density...
Loading historical data...
Loading historical data...
Loading historical data...
Loading historical data...
Loading historical data...
Loading historical data...
Loading historical data...

Documentation

Showing up to 5 results
|